Location: Black Creek
(40.9000°S, 175.5500°E)
Time: 23:54:17
(UTC+00:00)

Meteor 1-24 Rocket - Pass Details

Date: 06 November 2024
Orbit: 789 x 926 km, 81.3° (Epoch: 03 December)

Event Time Altitude Azimuth Distance (km) Brightness Sun altitude
Rises 14:59:42 0° 181° (S) 3,611 7.6 -19.5°
Reaches altitude 10° 15:02:31 10° 171° (S) 2,657 7.0 -19.1°
Maximum altitude 15:07:54 32° 109° (ESE) 1,544 5.7 -18.4°
Drops below altitude 10° 15:13:07 10° 47° (NE) 2,581 6.3 -17.6°
Sets 15:15:48 0° 37° (NE) 3,493 6.9 -17.3°
